This is the latest recevied weather packets stored in our database for station/object AE5TC. If no packets are shown the sender has not sent any weather packets the latest 10 day(s).
| Time | Temp. | Humidity | Pressure | Rain* | Wind** | Luminosity | Snow |
|---|---|---|---|---|---|---|---|
| 1778253576 | 26.11° C | 93% | 1013.9 hPa | 0 mm | - | 172 W/m² | - |
| 1778253273 | 25.56° C | 93% | 1014 hPa | 0 mm | - | 138 W/m² | - |
| 1778252970 | 26.11° C | 92% | 1014.1 hPa | 0 mm | - | 141 W/m² | - |
| 1778252666 | 26.11° C | 92% | 1014.1 hPa | 0 mm | - | 282 W/m² | - |
| 1778252362 | 26.11° C | 92% | 1013.9 hPa | 0 mm | - | 263 W/m² | - |
| 1778252059 | 26.11° C | 92% | 1014.1 hPa | 0 mm | - | 379 W/m² | - |
| 1778251756 | 26.11° C | 91% | 1014 hPa | 0 mm | - | 563 W/m² | - |
| 1778251454 | 25.56° C | 92% | 1013.8 hPa | 0 mm | - | 549 W/m² | - |
| 1778251151 | 25.56° C | 93% | 1013.8 hPa | 0 mm | - | 502 W/m² | - |
| 1778250849 | 25° C | 94% | 1013.8 hPa | 0 mm | - | 428 W/m² | - |
| 1778250545 | 24.44° C | 94% | 1014.1 hPa | 0 mm | - | 467 W/m² | - |
| 1778250242 | 24.44° C | 94% | 1014.2 hPa | 0 mm | - | 263 W/m² | - |
| 1778249938 | 24.44° C | 93% | 1014.5 hPa | 0 mm | - | 341 W/m² | - |
| 1778249635 | 24.44° C | 94% | 1014.3 hPa | 0 mm | - | 594 W/m² | - |
| 1778249333 | 23.33° C | 96% | 1014.2 hPa | 0 mm | - | 283 W/m² | - |
| 1778249030 | 23.33° C | 97% | 1014.3 hPa | 0 mm | - | 195 W/m² | - |
| 1778248725 | 23.33° C | 98% | 1014.3 hPa | 0 mm | - | 153 W/m² | - |
| 1778248422 | 23.33° C | 98% | 1014.3 hPa | 0 mm | - | 167 W/m² | - |
| 1778248118 | 22.78° C | 99% | 1014.4 hPa | 0 mm | - | 202 W/m² | - |
| 1778247815 | 22.78° C | 99% | 1014.4 hPa | 0 mm | - | 114 W/m² | - |
| 1778247511 | 22.78° C | 99% | 1014.2 hPa | 0 mm | - | 67 W/m² | - |
| 1778247210 | 22.78° C | 99% | 1014.1 hPa | 0 mm | - | 130 W/m² | - |
| 1778246906 | 22.78° C | 99% | 1014.3 hPa | 0 mm | - | 89 W/m² | - |
| 1778246604 | 22.78° C | 99% | 1014.3 hPa | 0 mm | - | 81 W/m² | - |
| 1778246301 | 22.78° C | 99% | 1014.5 hPa | 0 mm | - | 75 W/m² | - |
* Rain latest hour (hover to see other rain measurements)
** Current wind speed in m/s (hover to see current wind gust speed)